Weather reports worldwide

Advertisment
P11-B, Netherlands (6203): temperature & dewpoint: 22.01.2020 08:00:00 - 28.01.2020 08:00:00 (CET)P11-B, Netherlands (6203): wind speed & gusts: 22.01.2020 08:00:00 - 28.01.2020 08:00:00 (CET)P11-B, Netherlands (6203): wind direction: 22.01.2020 08:00:00 - 28.01.2020 08:00:00 (CET)P11-B, Netherlands (6203): reduced air pressure: 22.01.2020 08:00:00 - 28.01.2020 08:00:00 (CET)P11-B, Netherlands (6203): visibility: 22.01.2020 08:00:00 - 28.01.2020 08:00:00 (CET)
Date & Time tt [°C] td [°C] ff [km/h] ff [kn] fx [km/h] fx [kn] dd ppp [hPa] vv [km]
28.01.2020 08:00:00 - - - - - - - - -
28.01.2020 07:00:00 4,9 3,4 29 16 54 29 - 986,7 2,9
28.01.2020 06:00:00 6,2 4,3 34 18 54 29 - 986,0 10
28.01.2020 05:00:00 7,8 4,7 35 19 40 21 - 987,2 10
28.01.2020 04:00:00 6,8 3,4 24 13 68 37 - 988,9 5
28.01.2020 03:00:00 8,3 5,1 39 21 47 25 - 989,3 5
28.01.2020 02:00:00 8,0 4,1 48 26 54 29 - 990,1 3,8
28.01.2020 01:00:00 8,0 5,2 46 25 47 25 - 990,9 3,9
28.01.2020 00:00:00 7,4 4,7 46 25 47 25 - 991,1 5
27.01.2020 23:00:00 7,2 4,3 35 19 43 23 - 991,3 4,5
27.01.2020 22:00:00 6,7 4,8 42 23 61 33 - 992,4 4,6
27.01.2020 21:00:00 8,3 7,2 55 30 58 31 - 992,4 9
27.01.2020 20:00:00 8,5 7,1 55 30 58 31 - 993,4 10
27.01.2020 19:00:00 8,4 7,1 34 18 43 23 - 995,4 10
27.01.2020 18:00:00 8,3 7,0 37 20 43 23 - 997,4 10
27.01.2020 17:00:00 8,4 6,8 39 21 47 25 - 998,6 10
27.01.2020 16:00:00 8,6 7,1 50 27 50 27 - 999,5 10
27.01.2020 15:00:00 8,8 6,7 48 26 50 27 - 999,9 10
27.01.2020 14:00:00 8,9 7,1 52 28 50 27 - 1001,0 10
27.01.2020 13:00:00 8,8 7,4 44 24 50 27 - 1001,3 10
27.01.2020 12:00:00 9,0 7,7 46 25 47 25 - 1002,4 10
27.01.2020 11:00:00 9,2 7,8 41 22 43 23 - 1003,1 10
27.01.2020 10:00:00 9,3 7,6 44 24 47 25 SW 1003,4 10
27.01.2020 09:00:00 9,3 7,3 44 24 47 25 SW 1003,7 10
27.01.2020 08:00:00 9,3 7,3 41 22 43 23 SW 1004,0 10
27.01.2020 07:00:00 9,4 7,0 44 24 43 23 SW 1004,2 10
27.01.2020 06:00:00 9,4 7,9 37 20 43 23 SW 1004,4 10
27.01.2020 05:00:00 9,6 8,2 42 23 47 25 SW 1004,6 10
27.01.2020 04:00:00 9,4 8,5 46 25 47 25 SW 1005,1 9
27.01.2020 03:00:00 9,2 8,3 50 27 58 31 SSW 1004,7 8
27.01.2020 02:00:00 9,0 7,9 55 30 61 33 SSW 1004,9 9
27.01.2020 01:00:00 8,8 7,4 57 31 68 37 - 1004,4 7
27.01.2020 00:00:00 8,8 7,3 59 32 61 33 SSW 1004,9 8
26.01.2020 23:00:00 8,1 7,1 59 32 65 35 - 1005,5 5
26.01.2020 22:00:00 8,1 6,9 57 31 58 31 S 1006,6 6
26.01.2020 21:00:00 8,0 6,2 54 29 58 31 SSW 1007,3 9
26.01.2020 20:00:00 8,0 6,2 57 31 58 31 S 1008,1 8
26.01.2020 19:00:00 8,2 6,5 46 25 50 27 SSW 1008,8 9
26.01.2020 18:00:00 8,3 6,2 46 25 50 27 SSW 1009,0 9
26.01.2020 17:00:00 8,3 6,6 44 24 50 27 SSW 1009,5 7
26.01.2020 16:00:00 7,9 6,6 46 25 50 27 SSW 1010,0 6
26.01.2020 15:00:00 7,8 6,5 41 22 43 23 SSW 1010,7 6
26.01.2020 14:00:00 7,7 6,3 37 20 36 19 S 1011,3 6
26.01.2020 13:00:00 7,6 6,4 35 19 40 21 S 1011,8 5
26.01.2020 12:00:00 7,4 6,4 32 18 40 21 S 1012,5 4,5
26.01.2020 11:00:00 7,4 6,4 37 20 40 21 S 1013,1 4,7
26.01.2020 10:00:00 7,8 6,3 29 16 32 18 SSW 1013,3 5
26.01.2020 09:00:00 7,7 6,2 29 16 36 19 SSW 1013,5 6
26.01.2020 08:00:00 6,9 5,6 35 19 40 21 - 1013,5 4,7
26.01.2020 07:00:00 6,7 5,7 31 17 40 21 - 1013,4 4,3
26.01.2020 06:00:00 6,3 5,4 39 21 40 21 - 1013,4 4,3
26.01.2020 05:00:00 6,1 5,2 39 21 40 21 - 1013,5 3,7
26.01.2020 04:00:00 5,4 5,0 41 22 43 23 - 1014,3 2,3
26.01.2020 03:00:00 5,0 4,9 39 21 40 21 - 1014,9 0,9
26.01.2020 02:00:00 4,6 4,4 37 20 40 21 - 1015,6 0,8
26.01.2020 01:00:00 4,6 4,5 35 19 36 19 - 1016,4 0,5
26.01.2020 00:00:00 4,5 4,3 35 19 36 19 - 1016,9 0,5
25.01.2020 23:00:00 4,2 4,0 31 17 36 19 - 1017,5 0,5
25.01.2020 22:00:00 4,3 3,8 34 18 32 18 - 1017,9 2,4
25.01.2020 21:00:00 5,2 3,8 28 15 29 16 - 1018,7 7
25.01.2020 20:00:00 5,8 3,9 24 13 29 16 - 1018,7 7
25.01.2020 19:00:00 6,0 4,3 26 14 32 18 - 1018,7 7
25.01.2020 18:00:00 5,8 4,3 31 17 32 18 - 1018,5 5
25.01.2020 17:00:00 5,6 4,3 26 14 29 16 - 1018,4 4,1
25.01.2020 16:00:00 5,7 4,4 24 13 32 18 - 1018,7 5
25.01.2020 15:00:00 5,6 4,5 29 16 32 18 - 1019,0 3,4
25.01.2020 14:00:00 5,7 4,3 29 16 40 21 - 1019,5 5
25.01.2020 13:00:00 5,7 4,0 34 18 43 23 - 1019,9 5
25.01.2020 12:00:00 5,8 4,2 35 19 40 21 - 1020,5 5
25.01.2020 11:00:00 5,9 4,1 34 18 40 21 - 1020,3 5
25.01.2020 10:00:00 5,6 4,0 37 20 40 21 - 1020,0 4,0
25.01.2020 09:00:00 5,8 4,2 37 20 40 21 - 1020,0 3,7
25.01.2020 08:00:00 5,7 4,0 35 19 36 19 - 1019,7 4,0
25.01.2020 07:00:00 6,1 4,3 31 17 36 19 - 1019,9 4,3
25.01.2020 06:00:00 6,1 4,5 31 17 36 19 - 1019,6 5
25.01.2020 05:00:00 7,0 3,6 34 18 32 18 - 1019,9 9
25.01.2020 04:00:00 7,1 3,8 18 10 36 19 - 1020,2 10
25.01.2020 03:00:00 6,5 4,8 28 15 40 21 - 1020,7 4,2
25.01.2020 02:00:00 6,3 4,9 35 19 36 19 - 1020,6 4,1
25.01.2020 01:00:00 7,2 3,3 22 12 25 14 - 1021,2 10
25.01.2020 00:00:00 6,6 5,0 26 14 32 18 - 1021,1 4,9
24.01.2020 23:00:00 7,1 4,0 18 10 25 14 - 1021,7 10
24.01.2020 22:00:00 7,2 3,8 15 8 29 16 - 1021,8 10
24.01.2020 21:00:00 7,0 4,1 13 7 22 12 - 1021,8 10
24.01.2020 20:00:00 7,0 3,9 15 8 22 12 - 1022,0 10
24.01.2020 19:00:00 7,0 3,7 21 11 25 14 - 1022,0 10
24.01.2020 18:00:00 7,0 3,4 21 11 25 14 - 1021,6 10
24.01.2020 17:00:00 7,2 4,4 18 10 25 14 - 1021,3 10
24.01.2020 16:00:00 7,0 3,5 26 14 32 18 - 1021,3 6
24.01.2020 15:00:00 7,0 3,8 21 11 22 12 - 1021,5 10
24.01.2020 14:00:00 7,0 3,5 16 9 22 12 - 1022,2 10
24.01.2020 13:00:00 7,0 3,4 13 7 22 12 - 1022,8 10
24.01.2020 12:00:00 6,6 4,8 18 10 29 16 - 1023,4 5
24.01.2020 11:00:00 6,7 4,6 26 14 25 14 - 1023,2 7
24.01.2020 10:00:00 6,8 5,0 18 10 25 14 - 1023,1 7
24.01.2020 09:00:00 7,0 4,5 13 7 22 12 - 1023,2 10
24.01.2020 08:00:00 6,9 4,3 15 8 22 12 - 1022,8 10
24.01.2020 07:00:00 6,8 4,1 15 8 22 12 - 1022,7 10
24.01.2020 06:00:00 6,6 4,0 16 9 18 10 - 1022,9 9
24.01.2020 05:00:00 6,7 3,9 16 9 18 10 - 1023,5 9
24.01.2020 04:00:00 6,5 3,8 15 8 25 14 - 1024,1 8
24.01.2020 03:00:00 6,3 3,9 24 13 25 14 - 1024,3 6
24.01.2020 02:00:00 6,9 4,1 15 8 18 10 - 1025,2 10
24.01.2020 01:00:00 7,0 4,2 16 9 18 10 - 1025,7 10
24.01.2020 00:00:00 7,0 4,4 11 6 18 10 - 1026,1 10
23.01.2020 23:00:00 7,4 4,6 5 3 11 6 - 1026,4 10
23.01.2020 22:00:00 7,4 5,1 9 5 14 8 - 1026,9 10
23.01.2020 21:00:00 7,2 5,3 11 6 14 8 - 1026,9 10
23.01.2020 20:00:00 7,3 5,9 8 4 11 6 - 1027,6 7
23.01.2020 19:00:00 7,4 6,0 11 6 14 8 - 1028,0 6
23.01.2020 18:00:00 7,5 6,2 13 7 14 8 - 1028,3 7
23.01.2020 17:00:00 7,5 6,4 4 2 14 8 - 1028,6 10
23.01.2020 16:00:00 7,5 6,7 2 1 4 2 - 1029,1 10
23.01.2020 15:00:00 7,3 7,0 5 3 22 12 - 1029,8 4,8
23.01.2020 14:00:00 7,8 6,5 5 3 11 6 - 1030,7 10
23.01.2020 13:00:00 7,8 6,7 5 3 7 4 - 1031,7 10
23.01.2020 12:00:00 7,7 6,6 4 2 11 6 - 1032,3 10
23.01.2020 11:00:00 7,8 6,4 13 7 14 8 - 1033,0 10
23.01.2020 10:00:00 8,2 6,6 13 7 18 10 - 1033,1 10
23.01.2020 09:00:00 7,9 7,0 13 7 14 8 - 1033,3 10
23.01.2020 08:00:00 8,1 7,1 11 6 14 8 - 1033,4 15
23.01.2020 07:00:00 8,2 7,4 11 6 11 6 - 1033,5 10
23.01.2020 06:00:00 8,1 7,6 2 1 7 4 - 1033,9 10
23.01.2020 05:00:00 8,3 7,8 8 4 14 8 - 1034,3 10
23.01.2020 04:00:00 7,9 7,5 13 7 14 8 - 1034,8 10
23.01.2020 03:00:00 7,7 7,6 15 8 14 8 - 1035,4 2,4
23.01.2020 02:00:00 7,7 7,6 11 6 14 8 - 1035,8 2,4
23.01.2020 01:00:00 7,8 7,7 15 8 18 10 - 1036,3 1,8
23.01.2020 00:00:00 7,8 7,6 13 7 18 10 - 1036,2 4,2
22.01.2020 23:00:00 8,4 8,3 4 2 7 4 - 1036,4 4,0
22.01.2020 22:00:00 8,3 8,2 2 1 7 4 - 1036,5 0,9
22.01.2020 21:00:00 8,5 8,3 8 4 7 4 - 1036,7 4,2
22.01.2020 20:00:00 8,6 8,1 5 3 7 4 - 1036,7 6
22.01.2020 19:00:00 8,5 7,9 4 2 4 2 - 1036,5 6
22.01.2020 18:00:00 8,5 8,0 2 1 7 4 - 1036,3 4,9
22.01.2020 17:00:00 8,7 7,8 8 4 7 4 - 1036,2 8
22.01.2020 16:00:00 8,6 7,9 8 4 11 6 - 1036,3 6
22.01.2020 15:00:00 8,6 7,9 9 5 11 6 - 1036,2 8
22.01.2020 14:00:00 8,6 7,8 9 5 - - - 1036,5 6
22.01.2020 13:00:00 8,6 7,8 9 5 14 8 - 1036,8 6
22.01.2020 12:00:00 8,5 7,6 13 7 14 8 - 1037,2 8
22.01.2020 11:00:00 8,6 7,5 5 3 14 8 - 1037,2 7
22.01.2020 10:00:00 8,2 6,9 5 3 14 8 - 1037,2 8
22.01.2020 09:00:00 8,4 6,6 9 5 14 8 - 1036,8 8
22.01.2020 08:00:00 7,8 5,6 9 5 14 8 - 1036,5 10

tt = temperature
td = dewpoint
ff = wind speed
fx = gusts
dd = wind direction
ppp = reduced air pressure
vv = visibility

Next stations